Flag for U.S.A. Weather past 2 weeks in Modesto, California, U.S.A.

Now
84 °F

Sunny.


Feels Like: 83 °F
Forecast: 66 / 90 °F
Wind: 14 mph from Northwest

Location: Modesto City-County-Sham Field

Current Time: Jul 5, 2015 at 8:13:26 PM

Latest Report: Jul 5, 2015 at 7:53 PM


Visibility: 10 mi

Pressure: 29.84 "Hg

Humidity: 40%

Dew point: 57 °F

Location of ModestoLocation

Historic Weather in Modesto — Graph

°F

Modesto temperature yesterday

Maximum temperature yesterday: 101 °F (at 4:53 PM)
Minimum temperature yesterday: 70 °F (at 5:53 AM)
Average temperature yesterday: 84 °F

Past Weeks' High & Low Weather Summary

 TemperatureHumidityPressure
High104 °F (Jun 26, 3:53 PM)78% (Jun 29, 5:53 AM)30.00 "Hg (Jun 29, 5:53 AM)
Low59 °F (Jun 22, 5:53 AM)8% (Jun 20, 7:53 PM)29.70 "Hg (Jul 4, 5:53 PM)
Average83 °F33%29.85 "Hg
* Reported Jun 20 6:53 PM — Jul 5 6:53 PM, Modesto, Weather by CustomWeather, © 2015

Note: Actual official high and low records may vary slightly from our data, if they occured in-between our weather recording intervals... More about our weather records

Advertising

Modesto weather history for previous 24 hours

 ConditionsComfort  
Time TempWeatherWind HumidityBarometerVisibility
6:53 PM
Sun, Jul 5
88 °FSunny.13 mph35%29.83 "Hg10 mi
5:53 PM91 °FSunny.13 mph32%29.82 "Hg10 mi
4:53 PM93 °FSunny.12 mph31%29.81 "Hg10 mi
3:53 PM93 °FSunny.10 mph29%29.83 "Hg10 mi
2:53 PM93 °FSunny.10 mph27%29.84 "Hg10 mi
1:53 PM89 °FSunny.8 mph32%29.86 "Hg10 mi
12:53 PM87 °FSunny.10 mph35%29.88 "Hg10 mi
11:53 AM83 °FSunny.9 mph41%29.89 "Hg10 mi
10:53 AM79 °FSunny.5 mph47%29.90 "Hg10 mi
9:53 AM76 °FSunny.8 mph50%29.89 "Hg10 mi
8:53 AM72 °FSunny.7 mph59%29.88 "Hg10 mi
7:53 AM70 °FSunny.9 mph61%29.87 "Hg10 mi
6:53 AM67 °FSunny.8 mph66%29.85 "Hg10 mi
5:53 AM67 °FClear.5 mph63%29.83 "Hg10 mi
4:53 AM68 °FClear.6 mph61%29.82 "Hg10 mi
3:53 AM70 °FClear.6 mph55%29.80 "Hg10 mi
2:53 AM71 °FClear.6 mph55%29.79 "Hg10 mi
1:53 AM73 °FClear.7 mph53%29.79 "Hg10 mi
12:53 AM74 °FClear.5 mph50%29.78 "Hg10 mi
11:53 PM
Sat, Jul 4
77 °FClear.8 mph45%29.78 "Hg10 mi
10:53 PM79 °FClear.10 mph39%29.77 "Hg10 mi
9:53 PM82 °FClear.12 mph35%29.75 "Hg10 mi
8:53 PM87 °FSunny.10 mph28%29.73 "Hg10 mi
Weather by CustomWeather, © 2015

See weather overviewHow to use our weather pages